STARLINK-4443 (53508 NORAD) Tracking and Keplerian Element Data

This shows tracking and keplerian element data for the satellite.

Feedback or suggestion? Click here.




ElementValue
Catalog53508
NameSTARLINK-4443
Epoch Orbit1549
Epoch Day325.06010871
Epoch Year2022
RAAN84.126
Inclination97.656
Eccentricity0.0002253
Argument of Perigee29.1098
Mean Anonmoly331.0252
Mean Motion15.01254055
Decay Rate5.95E-06
L11 53508U 22099AV 22325.06010871 .00000595 00000+0 50906-4 0 9992
L22 53508 97.6560 84.1260 0002253 29.1098 331.0252 15.01254055 15491



Live tracking and technical data element details for STARLINK-4443 (NORAD 53508). STARLINK-4443 can be tracked NOW for your location showing map with azimuth and elevation plus other details from your city location.







IsCatalogInMostPopularTable: catalog: 53508, numindb: 3
Update: records affected: 1



GetName: 53508 STARLINK-4443

Hit Count: updated at: Thu, 08 Dec 2022 10:26:01 GMT